TITAN 3C TRANSTAGE DEB, 25001

Orbit data source: Space-Track

TITAN 3C TRANSTAGE DEB, 25001 is space debris in GEO originally from a launch on Thu, 26 Sep 1968 UTC launched from the Air Force Eastern Test Range (AFETR). Debris objects in space refer to the collection of defunct objects orbiting the Earth. Examples of debris include non-operational satellites, rocket bodies, and fragments generated from explosions, collisions, or faulty payload assembly.

Not visible in the next 10 days
Identifier
25001, 1968-081H
Orbit
GEO
Country
Flag of USUS
Related business
Manufacturer
Unknown
Mission
Spacecraft
Bus & Motor
Unknown
Mass
Unknown
Launch date (UTC)
1968-09-26 (57 years ago)
Launch vehicle
Unknown
Launch site
Air Force Eastern Test Range (AFETR)
Object type
Payload
Rocket body
Debris
Shape & HBR
Unknown shape, 1.1 m
Radar Cross Section
Medium (>0.1 m² and <1 m²)

Expand to show TLE details & history
Last TLE update: 19 hours ago

TLE from 19 hours ago
0 TITAN 3C TRANSTAGE DEB
1 25001U 68081H   25347.55898170  .00000091  00000-0  00000-0 0  9995
2 25001   1.6509  47.7132 0058159 350.6389  56.2898  1.01690448116433
Epoch: 2025-12-13T13:24Z
TLE epoch observation values (Epoch: 2025-12-13T13:24:56.018Z)
Latitude
1.23424°
Longitude
171.46117°
Altitude
35,258.029 km
Speed
3.099 km/s
True Right ascension
06h 20m 42s
True Declination
1° 13' 59"
Sunlit
Object was in daylight at epoch
Visualization orbit readout
Latitude
Unknown
Longitude
Unknown
Altitude
Unknown
Speed
Unknown
Apparent Right ascension
Unknown
Apparent Declination
Unknown
Sunlit
N/A
Visualization observer readout
Local Sidereal Time
06:51:27
Azimuth
Unknown
Elevation
Unknown
Doppler factor
Unknown
Orbital elements
Apogee altitude
35,637.548 km
Perigee altitude
35,151.656 km
Semi-major axis
41,772.739 km
Eccentricity
0.00582
Inclination
1.6509°
RAAN
47.7132°
Arg. of periapsis
350.6389°
True anomaly
56.84643°
Mean anomaly
56.2898°
Eccentric anomaly
56.56789°
Mean motion
0.25422 °/min
Orbital period
1,416.12 mins
BSTAR
0
Loading maneuver chart data...
Computing Atmospheric mass density...

Documentation

Showing up to 5 results
|